Weather History for Hebron, NE

Change the Weather History Date:

Tuesday, February 12, 2013

  Actual Average Record
Temperature  
Mean Temperature 36 °F -  
Max Temperature 50 °F 39 °F 76 °F (1951)
Min Temperature 21 °F 15 °F -13 °F (1981)
Degree Days  
Heating Degree Days 30    
Moisture  
Dew Point 18 °F    
Average Humidity 58    
Maximum Humidity 89    
Minimum Humidity 22    
Precipitation  
Precipitation 0.00 in - - ()
Sea Level Pressure  
Sea Level Pressure 30.03 in    
Wind  
Wind Speed 4 mph (West)    
Max Wind Speed 16 mph    
Max Gust Speed 21 mph    
Visibility 10 miles    
Events      
Averages and records for this station are not official NWS values.
T = Trace of Precipitation, MM = Missing Value Source: NWS Daily Summary

Daily Weather History Graph

Daily Weather History Graph

Search for Another Location

Airport:

Trip Planner

Search our weather history database for the weather conditions in past years. The results will help you decide how hot, cold, wet, or windy it might be!

Date:

Astronomy

Feb. 12, 2013 Rise Set
Actual Time 7:26 AM CST 6:02 PM CST
Civil Twilight 6:58 AM CST 6:30 PM CST
Nautical Twilight 6:26 AM CST 7:02 PM CST
Astronomical Twilight 5:55 AM CST 7:34 PM CST
Moon 8:24 AM CST (2/12) 9:05 PM CST (2/12)
Length of Visible Light 11h 32m
Length of Day
10h 36m
Waxing Crescent, 7% of the Moon is Illuminated
Feb 12
Waxing Crescent
Feb 17
First Quarter
Feb 25
Full
Mar 4
Last Quarter
Mar 11
New

Hourly Weather History & Observations

Time (CST) Temp. Windchill Dew Point Humidity Pressure Visibility Wind Dir Wind Speed Gust Speed Precip Events Conditions
12:15 AM 25.2 °F - 20.7 °F 83% 30.15 in 10.0 mi Calm Calm - N/A   Clear
12:35 AM 24.3 °F - 20.7 °F 86% 30.15 in 10.0 mi Calm Calm - N/A   Clear
12:55 AM 23.9 °F - 20.7 °F 87% 30.15 in 10.0 mi Calm Calm - N/A   Clear
1:15 AM 23.9 °F - 19.8 °F 84% 30.14 in 10.0 mi Calm Calm - N/A   Clear
1:35 AM 23.0 °F - 19.4 °F 86% 30.14 in 10.0 mi Calm Calm - N/A   Clear
1:55 AM 22.6 °F - 19.4 °F 87% 30.12 in 10.0 mi Calm Calm - N/A   Clear
2:15 AM 22.3 °F - 19.2 °F 88% 30.12 in 10.0 mi Calm Calm - N/A   Clear
2:35 AM 21.9 °F - 19.2 °F 89% 30.11 in 10.0 mi Calm Calm - N/A   Clear
2:55 AM 22.5 °F - 19.2 °F 87% 30.10 in 10.0 mi Calm Calm - N/A   Clear
3:15 AM 23.0 °F - 18.7 °F 84% 30.10 in 10.0 mi Calm Calm - N/A   Clear
3:35 AM 22.1 °F - 18.1 °F 85% 30.11 in 10.0 mi Calm Calm - N/A   Clear
3:55 AM 21.9 °F - 18.5 °F 87% 30.10 in 10.0 mi Calm Calm - N/A   Clear
4:15 AM 22.1 °F - 18.7 °F 87% 30.11 in 10.0 mi Calm Calm - N/A   Clear
4:35 AM 22.6 °F - 19.2 °F 87% 30.11 in 10.0 mi Calm Calm - N/A   Clear
4:55 AM 22.5 °F - 19.0 °F 87% 30.12 in 10.0 mi Calm Calm - N/A   Clear
5:15 AM 23.0 °F - 19.4 °F 86% 30.12 in 10.0 mi Calm Calm - N/A   Clear
5:35 AM 23.0 °F - 19.4 °F 86% 30.11 in 10.0 mi Calm Calm - N/A   Clear
5:55 AM 22.1 °F - 19.0 °F 88% 30.11 in 10.0 mi Calm Calm - N/A   Clear
6:15 AM 22.1 °F - 19.0 °F 88% 30.10 in 10.0 mi Calm Calm - N/A   Clear
6:35 AM 21.7 °F - 18.5 °F 87% 30.09 in 10.0 mi Calm Calm - N/A   Clear
6:55 AM 22.8 °F - 19.2 °F 86% 30.08 in 10.0 mi Calm Calm - N/A   Clear
7:15 AM 22.5 °F - 18.9 °F 86% 30.08 in 10.0 mi Calm Calm - N/A   Clear
7:35 AM 21.7 °F - 18.0 °F 85% 30.07 in 10.0 mi Calm Calm - N/A   Clear
7:55 AM 24.1 °F - 19.6 °F 83% 30.06 in 10.0 mi Calm Calm - N/A   Clear
8:15 AM 27.3 °F 19.9 °F 20.8 °F 77% 30.09 in 10.0 mi SSW 6.9 mph - N/A   Clear
8:35 AM 30.0 °F 21.7 °F 20.8 °F 69% 30.10 in 10.0 mi SSW 9.2 mph - N/A   Clear
8:55 AM 32.0 °F 25.6 °F 21.9 °F 66% 30.09 in 10.0 mi SW 6.9 mph - N/A   Clear
9:15 AM 34.5 °F 27.9 °F 22.6 °F 62% 30.08 in 10.0 mi WSW 8.1 mph - N/A   Clear
9:35 AM 36.1 °F 27.7 °F 21.6 °F 56% 30.07 in 10.0 mi West 12.7 mph - N/A   Clear
9:55 AM 37.8 °F 31.3 °F 21.7 °F 53% 30.07 in 10.0 mi West 9.2 mph - N/A   Clear
10:15 AM 40.1 °F 32.7 °F 19.9 °F 44% 30.06 in 7.0 mi West 12.7 mph - N/A   Clear
10:35 AM 41.5 °F 35.0 °F 19.4 °F 41% 30.07 in 10.0 mi WSW 11.5 mph - N/A   Clear
10:55 AM 42.1 °F 34.2 °F 18.1 °F 38% 30.08 in 10.0 mi WSW 16.1 mph 20.7 mph N/A   Clear
11:15 AM 43.0 °F 35.7 °F 18.7 °F 38% 30.07 in 10.0 mi WSW 15.0 mph - N/A   Clear
11:35 AM 44.6 °F 38.8 °F 18.7 °F 36% 30.07 in 10.0 mi SW 11.5 mph - N/A   Clear
11:55 AM 46.0 °F 40.6 °F 18.3 °F 33% 30.06 in 10.0 mi SW 11.5 mph 17.3 mph N/A   Clear
12:15 PM 46.6 °F - 16.5 °F 30% 30.05 in 10.0 mi WSW 15.0 mph - N/A   Clear
12:35 PM 48.2 °F - 17.2 °F 29% 30.03 in 10.0 mi WSW 9.2 mph - N/A   Clear
12:55 PM 48.6 °F - 16.5 °F 28% 30.02 in 10.0 mi West 15.0 mph - N/A   Clear
1:15 PM 48.7 °F - 16.0 °F 27% 30.00 in 10.0 mi WNW 16.1 mph - N/A   Clear
1:35 PM 49.6 °F - 16.5 °F 27% 30.00 in 10.0 mi West 15.0 mph 18.4 mph N/A   Clear
1:55 PM 49.8 °F - 16.2 °F 26% 29.99 in 10.0 mi West 11.5 mph 19.6 mph N/A   Clear
2:15 PM 49.8 °F - 16.3 °F 26% 29.97 in 10.0 mi West 12.7 mph 18.4 mph N/A   Clear
2:35 PM 50.0 °F - 15.8 °F 26% 29.96 in 10.0 mi West 11.5 mph - N/A   Clear
2:55 PM 50.5 °F - 14.5 °F 24% 29.95 in 10.0 mi West 15.0 mph 18.4 mph N/A   Clear
3:15 PM 50.2 °F - 13.3 °F 23% 29.95 in 10.0 mi WSW 15.0 mph 18.4 mph N/A   Clear
3:35 PM 50.2 °F - 13.3 °F 23% 29.94 in 10.0 mi West 10.4 mph 18.4 mph N/A   Clear
3:55 PM 50.2 °F - 12.2 °F 22% 29.94 in 10.0 mi West 12.7 mph 19.6 mph N/A   Clear
4:15 PM 49.5 °F - 12.7 °F 23% 29.94 in 10.0 mi West 11.5 mph - N/A   Clear
4:35 PM 48.7 °F - 13.5 °F 24% 29.94 in 10.0 mi West 8.1 mph - N/A   Clear
4:55 PM 49.1 °F - 12.6 °F 23% 29.93 in 10.0 mi West 9.2 mph - N/A   Clear
5:15 PM 48.6 °F - 12.2 °F 23% 29.94 in 10.0 mi West 9.2 mph - N/A   Clear
5:35 PM 46.6 °F - 14.4 °F 27% 29.93 in 10.0 mi WNW 5.8 mph - N/A   Clear
5:55 PM 44.4 °F 42.9 °F 15.1 °F 31% 29.93 in 10.0 mi West 3.5 mph - N/A   Clear
6:15 PM 41.5 °F 39.6 °F 14.7 °F 34% 29.94 in 10.0 mi West 3.5 mph - N/A   Clear
6:35 PM 39.0 °F 34.8 °F 14.2 °F 36% 29.94 in 10.0 mi WSW 5.8 mph - N/A   Clear
6:55 PM 37.6 °F 33.1 °F 14.7 °F 39% 29.94 in 10.0 mi WSW 5.8 mph - N/A   Clear
7:15 PM 36.0 °F 32.1 °F 14.7 °F 42% 29.94 in 10.0 mi West 4.6 mph - N/A   Clear
7:35 PM 32.4 °F 27.9 °F 18.3 °F 56% 29.95 in 10.0 mi WNW 4.6 mph - N/A   Clear
8:15 PM 32.0 °F 28.7 °F 18.3 °F 57% 29.95 in 10.0 mi WNW 3.5 mph - N/A   Clear
8:35 PM 32.0 °F 27.5 °F 18.7 °F 58% 29.95 in 10.0 mi WNW 4.6 mph - N/A   Clear
8:55 PM 32.5 °F 28.1 °F 19.2 °F 58% 29.95 in 10.0 mi WNW 4.6 mph - N/A   Clear
9:15 PM 32.0 °F 28.7 °F 19.0 °F 59% 29.95 in 10.0 mi West 3.5 mph - N/A   Clear
9:35 PM 33.1 °F 26.1 °F 20.5 °F 60% 29.95 in 10.0 mi NW 8.1 mph - N/A   Clear
9:55 PM 32.9 °F 26.7 °F 21.2 °F 62% 29.96 in 10.0 mi NW 6.9 mph - N/A   Clear
10:15 PM 32.0 °F 27.5 °F 21.4 °F 65% 29.95 in 10.0 mi WNW 4.6 mph - N/A   Clear
10:35 PM 31.5 °F 28.1 °F 21.9 °F 68% 29.95 in 10.0 mi WNW 3.5 mph - N/A   Clear
10:55 PM 31.1 °F - 22.5 °F 70% 29.95 in 10.0 mi Calm Calm - N/A   Clear
11:15 PM 31.1 °F 26.4 °F 22.1 °F 69% 29.95 in 10.0 mi West 4.6 mph - N/A   Clear
11:35 PM 30.6 °F 25.8 °F 22.5 °F 72% 29.95 in 10.0 mi West 4.6 mph - N/A   Clear
11:55 PM 29.5 °F 25.9 °F 22.1 °F 74% 29.95 in 10.0 mi West 3.5 mph - N/A   Clear